Volver al catálogo

SKYNET 2B

ActivoMilitarGEO
NORAD 7547·PAYLOAD·🇬🇧 United Kingdom

Lanzado Nov 23, 1974 desde Cape Canaveral Space Force Station

Loading…

TLE

ActualizadoSource: Space-Track

Época: Sep 14, 2026, 14:24 UTC

1 07547U 74094A   26257.60006111 -.00000357  00000-0  00000-0 0  9990
2 07547   3.3517 280.0010 0003212 244.8177 170.7620  1.00332994125660

Sigue SKYNET 2B en tiempo real con AllMySat

Download on the App Store